Location: Dunedin
(45.8670°S, 170.5000°E)
Time: 09:28:16
(UTC+13:00)

Cosmos 1340 Rocket - Pass Details

Date: 24 January 2019
Orbit: 529 x 560 km, 81.2° (Epoch: 21 February)

Event Time Altitude Azimuth Distance (km) Brightness Sun altitude
Exits shadow 23:51:25 50° 66° (ENE) 702 3.0 -19.6°
Maximum altitude 23:51:44 51° 84° (E) 689 3.0 -19.6°
Drops below altitude 10° 23:55:39 10° 160° (SSE) 1,833 6.0 -19.9°
Sets 23:57:53 0° 164° (SSE) 2,740 7.1 -20.1°
